[[{"header":{"parameterUnit":"m.s-1","parameterCategory":1,"la1":30.2991,"la2":30.254,"lo1":-89.0895,"lo2":-89.0444,"dy":0.0017,"dx":0.0017,"nx":28,"ny":28,"refTime":"2023-10-27T09:00:00:Z","depth":0,"parameterNumber":2,"parameterNumberName":"U-component_of_WINDS"},"data":[0,0,0,0,0,0,0,0,0,0,0,0,0,0,0,0,0,0,0,0,0,0,0,0,0,0,0,0,0,0,0,0,0,0,0,0,0,0,0,0,0,0,0,0,0,0,0,0,0,0,0,0,0,0,0,0,0,0,-2.4706,-2.4705,0,-2.4626,-2.4625,-2.4624,-2.453,-2.4529,-2.4527,-2.4526,-2.4443,-2.4442,-2.4442,0,0,0,0,0,0,0,0,0,0,0,0,0,-2.478,-2.4779,-2.4706,-2.4705,-2.4704,-2.4626,-2.4625,-2.4624,-2.453,-2.4529,-2.4527,-2.4525,-2.4444,-2.4443,-2.4441,0,0,0,0,0,0,0,0,0,0,0,0,0,-2.4729,-2.4779,-2.4707,-2.4648,-2.4642,-2.4626,-2.4625,-2.4623,-2.4531,-2.4528,-2.4526,-2.4524,-2.4444,-2.4443,-2.4441,-2.4476,0,0,-2.4437,-2.4437,0,0,0,0,0,0,0,0,-2.4732,-2.4726,-2.4658,-2.4652,-2.4645,-2.4586,-2.462,-2.4574,-2.4531,-2.4573,-2.4526,-2.4523,-2.4492,-2.4487,-2.4477,-2.4472,-2.4469,-2.4437,-2.4436,-2.4436,-2.4436,0,0,0,0,0,0,0,-2.4735,-2.4729,-2.4674,-2.4657,-2.4649,-2.4626,-2.4617,-2.4611,-2.4546,-2.4569,-2.4562,-2.4554,-2.4489,-2.4478,-2.4474,-2.4467,-2.4437,-2.4436,-2.4435,-2.4435,-2.4488,-2.449,0,0,0,0,0,0,-2.4748,-2.4733,-2.4677,-2.4672,-2.4684,-2.4627,-2.4616,-2.4607,-2.4545,-2.4534,-2.4556,-2.455,-2.4481,-2.4476,-2.4471,-2.4507,-2.4436,-2.4435,-2.4434,-2.4486,-2.4489,-2.4491,0,0,0,0,0,0,-2.475,-2.4744,-2.468,-2.47,-2.4691,-2.4628,-2.4619,-2.4607,-2.4596,-2.4535,-2.4523,-2.4557,-2.4479,-2.4472,-2.4475,-2.4503,-2.4434,-2.4433,-2.4483,-2.4487,-2.449,-2.458,0,0,0,0,0,0,-2.4752,-2.4745,-2.4757,-2.4701,-2.469,-2.4686,-2.462,-2.4607,-2.4594,-2.4585,-2.4533,-2.4523,-2.4477,-2.4478,-2.4474,-2.45,-2.4432,-2.4481,-2.4485,-2.4489,-2.4574,-2.4586,-2.4596,0,0,0,0,0,-2.4755,-2.4786,-2.4758,-2.4752,-2.4704,-2.4688,-2.4681,-2.4629,-2.4597,-2.4608,-2.457,-2.4524,-2.4501,-2.4479,-2.4474,-2.45,-2.4479,-2.4484,-2.4488,-2.457,-2.4584,-2.4596,0,0,0,0,0,0,-2.4845,-2.4777,-2.4746,-2.4759,-2.473,-2.4672,-2.4685,-2.4645,-2.4625,-2.4618,-2.4553,-2.4542,-2.4553,-2.4527,-2.4504,-2.453,-2.4483,-2.4487,-2.4547,-2.456,-2.457,-2.4576,-2.4431,0,0,0,0,0,-2.4867,-2.486,-2.4801,-2.4818,-2.4805,-2.4749,-2.474,-2.4702,-2.4669,-2.4656,-2.4617,-2.4588,-2.4573,-2.4565,-2.4549,-2.4571,-2.4558,-2.4586,-2.4597,-2.4607,-2.461,-2.462,-2.4632,-2.4507,-2.4507,-2.4507,0,0,-2.4911,-2.4873,-2.4872,-2.4836,-2.4808,-2.4803,-2.4738,-2.4735,-2.473,-2.4655,-2.4655,-2.4627,-2.4589,-2.4602,-2.4606,-2.4581,-2.4642,-2.4613,-2.4621,-2.4619,-2.4627,-2.4638,-2.4649,-2.4511,-2.451,-2.4509,0,0,-2.4988,-2.4959,-2.4971,-2.4945,-2.4906,-2.4868,-2.4871,-2.4819,-2.4797,-2.4797,-2.4741,-2.4735,-2.4712,-2.4687,-2.4672,-2.4743,-2.47,-2.474,-2.4796,-2.4806,-2.4816,-2.4824,-2.4849,-2.4859,-2.4744,-2.4744,-2.4744,0,-2.5048,-2.5037,-2.4982,-2.4982,-2.4967,-2.49,-2.4912,-2.489,-2.4847,-2.4839,-2.4812,-2.4782,-2.4752,-2.4758,-2.4776,-2.4766,-2.4767,-2.4744,-2.4819,-2.4827,-2.4834,-2.4857,-2.4866,-2.4749,-2.4749,-2.4748,-2.4748,0,-2.5112,-2.5106,-2.512,-2.508,-2.5068,-2.5074,-2.5019,-2.5013,-2.4978,-2.4943,-2.4944,-2.4906,-2.4881,-2.488,-2.4845,-2.4882,-2.4867,-2.4831,-2.4782,-2.4852,-2.4872,-2.488,-2.4756,-2.4755,-2.4753,-2.4752,0,0,-2.5241,-2.5173,-2.5179,-2.5161,-2.5113,-2.5107,-2.5111,-2.5086,-2.5082,-2.5056,-2.5057,-2.504,-2.5006,-2.4989,-2.4951,-2.4961,-2.5019,-2.4922,-2.492,-2.4941,-2.5057,-2.5084,-2.5095,-2.4991,-2.4993,-2.4994,-2.506,0,-2.5309,-2.531,-2.5262,-2.5276,-2.527,-2.5208,-2.5211,-2.5182,-2.5151,-2.5141,-2.5106,-2.5095,-2.5051,-2.504,-2.5047,-2.501,-2.5041,-2.5005,-2.4991,-2.4991,-2.5001,-2.5106,-2.5134,-2.5198,-2.5068,-2.5069,-2.507,0,-2.5387,-2.5366,-2.538,-2.5333,-2.5328,-2.5332,-2.5306,-2.5298,-2.5265,-2.5241,-2.5224,-2.518,-2.5181,-2.5137,-2.5136,-2.5113,-2.5105,-2.5086,-2.5088,-2.5083,-2.5034,-2.5103,-2.5217,-2.5226,-2.5082,-2.5081,-2.508,0,-2.5479,-2.5454,-2.5459,-2.5446,-2.5391,-2.5395,-2.5373,-2.5338,-2.5327,-2.5305,-2.5297,-2.5276,-2.5264,-2.5249,-2.5202,-2.5174,-2.5208,-2.5159,-2.5188,-2.5189,-2.5196,-2.5196,-2.5309,-2.5194,-2.5193,-2.5193,-2.5193,0,-2.5559,-2.557,-2.55,-2.5503,-2.5514,-2.5459,-2.5471,-2.5443,-2.5412,-2.5409,-2.5355,-2.5353,-2.5292,-2.5283,-2.5247,-2.5252,-2.5247,-2.5228,-2.5218,-2.5232,-2.5235,-2.5225,-2.5218,-2.5196,-2.5195,-2.5195,-2.5194,0,-2.5662,-2.5616,-2.5617,-2.5566,-2.5554,-2.5564,-2.552,-2.5521,-2.5488,-2.5484,-2.548,-2.5427,-2.5415,-2.5367,-2.5343,-2.5318,-2.5335,-2.5316,-2.5346,-2.5339,-2.537,-2.5368,-2.548,-2.5492,-2.5371,-2.5372,-2.5373,0,-2.5714,-2.5722,-2.5672,-2.5666,-2.5646,-2.5637,-2.5626,-2.5573,-2.5563,-2.5528,-2.5533,-2.5517,-2.55,-2.5483,-2.5443,-2.5424,-2.5404,-2.5445,-2.54,-2.5415,-2.5403,-2.5402,-2.5403,-2.5453,-2.5455,-2.5456,-2.5457,0,-2.5813,-2.579,-2.5776,-2.5755,-2.5743,-2.5724,-2.5701,-2.57,-2.564,-2.5633,-2.562,-2.5607,-2.5583,-2.5567,-2.5543,-2.552,-2.5479,-2.5472,-2.5477,-2.5491,-2.5507,-2.5498,-2.537,-2.5469,-2.5468,-2.5467,-2.5466,-2.5466,-2.5891,-2.5895,-2.5861,-2.5847,-2.5825,-2.5806,-2.5804,-2.5771,-2.5759,-2.5735,-2.5705,-2.5696,-2.5664,-2.5626,-2.5607,-2.5599,-2.5576,-2.5585,-2.5586,-2.5589,-2.5596,-2.5511,-2.5595,-2.5594,-2.5594,-2.5594,-2.5593,0,-2.5986,-2.5961,-2.595,-2.592,-2.591,-2.5874,-2.5847,-2.5841,-2.5833,-2.5807,-2.5793,-2.5778,-2.5763,-2.5723,-2.5704,-2.5706,-2.5686,-2.5702,-2.5701,-2.5696,-2.5617,-2.5614,-2.5718,-2.5718,-2.5718,-2.5718,-2.5718,-2.5718,-2.6033,-2.6037,-2.6011,-2.6004,-2.598,-2.597,-2.5958,-2.594,-2.5919,-2.5906,-2.5893,-2.5867,-2.5835,-2.5814,-2.5799,-2.5787,-2.5782,-2.5804,-2.5787,-2.5713,-2.5701,-2.569,-2.5686,-2.5804,-2.5804,-2.5865,-2.5866,-2.5866]},{"header":{"parameterUnit":"m.s-1","parameterCategory":1,"la1":30.2991,"la2":30.254,"lo1":-89.0895,"lo2":-89.0444,"dy":0.0017,"dx":0.0017,"nx":28,"ny":28,"refTime":"2023-10-27T09:00:00:Z","depth":0,"parameterNumber":3,"parameterNumberName":"V-component_of_WINDS"},"data":[0,0,0,0,0,0,0,0,0,0,0,0,0,0,0,0,0,0,0,0,0,0,0,0,0,0,0,0,0,0,0,0,0,0,0,0,0,0,0,0,0,0,0,0,0,0,0,0,0,0,0,0,0,0,0,0,0,0,1.6901,1.6901,0,1.6905,1.6905,1.6905,1.6971,1.6972,1.6974,1.6976,1.6975,1.6973,1.6972,0,0,0,0,0,0,0,0,0,0,0,0,0,1.6948,1.6946,1.69,1.6901,1.6901,1.6905,1.6905,1.6905,1.697,1.6973,1.6975,1.6977,1.6975,1.6974,1.6972,0,0,0,0,0,0,0,0,0,0,0,0,0,1.6937,1.6946,1.69,1.6934,1.6937,1.6905,1.6905,1.6905,1.697,1.6973,1.6975,1.6978,1.6976,1.6974,1.6971,1.6905,0,0,1.6964,1.6963,0,0,0,0,0,0,0,0,1.6937,1.6935,1.6929,1.6932,1.6935,1.694,1.6921,1.6905,1.6969,1.6957,1.6976,1.6979,1.6961,1.696,1.6955,1.6905,1.6905,1.6964,1.6962,1.6961,1.6961,0,0,0,0,0,0,0,1.6938,1.6935,1.6902,1.6929,1.6933,1.6948,1.695,1.6918,1.6944,1.6959,1.6963,1.6963,1.6963,1.6957,1.6955,1.6905,1.6964,1.6962,1.696,1.6959,1.6805,1.6803,0,0,0,0,0,0,1.6935,1.6935,1.6902,1.6902,1.6943,1.6945,1.6947,1.6936,1.6945,1.6949,1.6961,1.6966,1.696,1.6958,1.6955,1.6881,1.6961,1.6959,1.6958,1.6808,1.6805,1.6802,0,0,0,0,0,0,1.6935,1.6931,1.6902,1.692,1.6918,1.6942,1.6929,1.6934,1.6929,1.6947,1.6952,1.695,1.6962,1.6959,1.6919,1.6882,1.6958,1.6956,1.6811,1.6807,1.6803,1.673,0,0,0,0,0,0,1.6936,1.6931,1.6906,1.6919,1.6916,1.6865,1.6927,1.6933,1.6925,1.6932,1.6938,1.6942,1.6964,1.6922,1.6916,1.688,1.6954,1.6814,1.6809,1.6805,1.6736,1.6724,1.6714,0,0,0,0,0,1.6938,1.6883,1.6905,1.69,1.6886,1.6863,1.6861,1.6889,1.6922,1.6897,1.691,1.6941,1.6887,1.6917,1.6911,1.6874,1.6817,1.6811,1.6805,1.6741,1.6726,1.6714,0,0,0,0,0,0,1.6862,1.6886,1.6909,1.6858,1.6858,1.6874,1.6843,1.6872,1.6861,1.6868,1.6902,1.6903,1.6857,1.6862,1.6895,1.6812,1.6858,1.685,1.6811,1.6797,1.6787,1.6786,1.6952,0,0,0,0,0,1.6841,1.6821,1.6841,1.6794,1.6793,1.6818,1.6809,1.6831,1.6832,1.6831,1.6841,1.6839,1.6823,1.681,1.6795,1.6737,1.674,1.6709,1.6698,1.6689,1.6682,1.6654,1.664,1.6782,1.6782,1.6783,0,0,1.6793,1.6804,1.6788,1.6779,1.6782,1.676,1.6818,1.6791,1.6775,1.6827,1.679,1.6797,1.6798,1.6749,1.6728,1.6751,1.6644,1.6681,1.6674,1.6672,1.6646,1.6633,1.6621,1.6778,1.6779,1.678,0,0,1.6697,1.6703,1.6665,1.6668,1.6673,1.6691,1.6682,1.6694,1.6701,1.6666,1.6705,1.6686,1.6655,1.6656,1.6651,1.656,1.6589,1.6554,1.6496,1.6469,1.6457,1.6448,1.6416,1.6404,1.6547,1.6547,1.6546,0,1.6638,1.6608,1.6641,1.6614,1.6609,1.6658,1.6621,1.6621,1.662,1.6615,1.6642,1.6607,1.6611,1.6564,1.6542,1.6536,1.6528,1.6552,1.6457,1.6447,1.6438,1.6409,1.6397,1.6542,1.6543,1.6543,1.6544,0,1.6535,1.6514,1.6483,1.6484,1.6476,1.6443,1.6472,1.6459,1.6483,1.6498,1.6462,1.6469,1.6458,1.6449,1.6469,1.6405,1.642,1.6451,1.6497,1.642,1.6393,1.6382,1.6536,1.6538,1.6539,1.654,0,0,1.6388,1.6412,1.64,1.6402,1.6413,1.6397,1.6367,1.6359,1.6348,1.6346,1.6323,1.6298,1.6328,1.6323,1.6345,1.6321,1.625,1.6356,1.6356,1.6337,1.6182,1.6158,1.6145,1.6271,1.6269,1.6267,1.6182,0,1.6296,1.6248,1.628,1.6227,1.6208,1.6257,1.6231,1.6235,1.6249,1.6235,1.625,1.6233,1.6273,1.6271,1.6249,1.6263,1.622,1.627,1.6249,1.6247,1.6247,1.613,1.6105,1.6024,1.6171,1.617,1.6168,0,1.6182,1.6179,1.6124,1.6142,1.6136,1.6112,1.6109,1.6095,1.6101,1.6113,1.611,1.614,1.6112,1.6159,1.6122,1.6156,1.6149,1.6155,1.6153,1.6151,1.6203,1.6126,1.5999,1.5987,1.6152,1.6153,1.6154,0,1.6082,1.6064,1.603,1.603,1.605,1.6033,1.604,1.6049,1.6043,1.6039,1.6036,1.6028,1.6024,1.6018,1.6045,1.6076,1.6005,1.6053,1.6014,1.6013,1.5996,1.5996,1.5866,1.5991,1.5991,1.5991,1.5992,0,1.5975,1.594,1.5986,1.5965,1.5928,1.5965,1.5927,1.5939,1.5947,1.5929,1.597,1.5952,1.5989,1.5975,1.5996,1.5963,1.596,1.5969,1.5975,1.5966,1.5965,1.5961,1.5968,1.5988,1.5989,1.599,1.599,0,1.5856,1.5885,1.5852,1.5875,1.588,1.5852,1.5871,1.5853,1.5871,1.5848,1.5845,1.5873,1.586,1.5887,1.5875,1.5889,1.5844,1.5858,1.5842,1.5847,1.5806,1.581,1.5669,1.5653,1.5788,1.5787,1.5785,0,1.5787,1.5762,1.5783,1.5776,1.5782,1.5768,1.5763,1.5799,1.5793,1.58,1.5781,1.5771,1.5765,1.5741,1.576,1.5752,1.5767,1.5718,1.5766,1.5758,1.5767,1.5769,1.5767,1.5708,1.5706,1.5705,1.5704,0,1.566,1.5677,1.567,1.5668,1.5662,1.5662,1.5664,1.5655,1.5694,1.5685,1.5673,1.5668,1.5659,1.5649,1.5647,1.5654,1.5685,1.5689,1.568,1.567,1.5662,1.5667,1.5816,1.5692,1.5693,1.5694,1.5695,1.5695,1.5564,1.5546,1.5559,1.555,1.5557,1.556,1.5545,1.5563,1.5554,1.5551,1.5573,1.5556,1.5566,1.5566,1.557,1.5558,1.558,1.5566,1.5562,1.5558,1.5553,1.5665,1.5557,1.5558,1.5558,1.5558,1.5559,0,1.5441,1.5453,1.5445,1.5449,1.5443,1.5476,1.5482,1.5474,1.546,1.5467,1.5462,1.5449,1.544,1.546,1.5455,1.5441,1.5456,1.5439,1.544,1.5442,1.5533,1.5542,1.5427,1.5427,1.5427,1.5427,1.5428,1.5428,1.5376,1.5347,1.5366,1.5341,1.5353,1.5339,1.534,1.5343,1.5349,1.5334,1.5328,1.5343,1.5355,1.5352,1.5346,1.5352,1.5349,1.5326,1.5337,1.5422,1.5435,1.5447,1.5456,1.5325,1.5325,1.5248,1.5247,1.5246]}]]